Location: Lahitte
(43.6596°N, 0.6805°E)
Time: 21:15:24
(UTC+00:00)

Meteor 1-11 Rocket - Pass Details

Date: 15 May 2026
Orbit: 829 x 915 km, 81.2° (Epoch: 8 June)

Event Time Altitude Azimuth Distance (km) Brightness Sun altitude
Rises 23:01:45 0° 353° (N) 3,445 8.2 -26.2°
Reaches altitude 10° 23:04:16 10° 358° (N) 2,492 7.1 -26.3°
Maximum altitude 23:09:48 55° 76° (ENE) 1,003 4.0 -26.5°
Enters shadow 23:10:14 54° 94° (E) 1,016 3.9 -26.5°
